Probability
0 0 0 0 0 0 0 0 0 0 1 3 4 5 7 10 16 21 21 20 21 22 24 25 27 29 29 28 27 25 25 25 24 22 21 20 16 13 12 14 14 13 10 8
0 0 0 0 0 0 0 1 1 1 3 6 8 10 11 12 16 18 18 19 20 21 23 26 27 26 26 27 26 25 24 23 20 20 20 18 13 11 11 13 14 11 8 6
0 0 0 0 1 1 1 2 3 3 5 9 13 15 16 16 16 16 17 18 20 20 23 27 26 23 22 23 23 22 21 19 15 15 16 13 9 8 10 11 12 10 6 4
0 0 0 0 1 2 3 4 5 5 6 10 13 14 14 14 16 16 16 18 19 20 23 25 24 22 22 22 21 20 17 13 10 9 10 9 7 7 8 9 9 8 5 4
0 0 0 0 1 1 4 6 6 6 8 9 10 9 8 9 13 16 17 18 20 20 20 22 23 24 24 24 21 17 12 8 5 4 5 6 6 7 7 8 6 5 4 3
0 0 0 0 0 1 3 6 8 9 10 9 7 6 6 6 10 14 18 20 21 20 18 20 25 26 26 26 22 15 9 5 3 3 4 5 6 6 7 7 6 3 2 1
0 0 0 0 0 1 4 8 11 11 9 7 5 5 5 6 8 12 16 20 22 22 21 23 26 28 29 28 23 15 8 5 4 4 4 4 6 6 6 6 6 4 2 1
0 0 1 1 2 4 7 9 9 8 7 6 5 5 4 5 7 10 15 19 21 24 25 25 26 29 30 28 22 15 9 7 7 6 5 4 5 5 6 6 7 6 5 3
1 2 3 3 5 7 9 8 6 5 6 5 4 3 3 4 6 10 14 16 18 23 26 25 24 27 27 24 19 14 10 9 9 8 6 5 5 4 4 6 7 6 6 5
3 3 3 4 5 7 8 6 4 4 5 4 3 2 3 3 6 11 14 14 15 19 23 22 21 23 24 21 17 13 12 11 11 9 7 6 7 6 5 6 7 7 7 6
4 4 4 4 5 6 6 5 3 4 4 4 3 3 3 3 6 12 15 13 13 15 18 19 18 20 21 19 15 13 12 11 9 7 6 6 7 8 7 6 5 5 6 6
2 3 5 5 5 5 5 4 3 3 3 3 3 3 3 4 7 11 13 12 11 12 14 15 17 19 18 16 14 13 12 10 7 5 5 5 6 6 5 3 2 2 2 3
0 2 4 5 4 3 3 3 3 2 2 2 3 4 3 4 6 9 11 11 11 11 13 16 18 18 15 14 14 13 11 7 5 4 3 4 6 5 3 1 1 0 0 1
0 0 2 3 3 2 1 1 1 1 1 1 3 4 5 5 6 8 10 11 12 13 14 17 19 18 14 13 13 12 10 6 4 3 2 4 7 6 4 3 2 1 0 0
0 0 0 1 2 2 1 0 0 0 0 0 2 5 7 7 7 7 8 10 14 15 16 17 18 16 13 12 11 11 9 7 4 3 4 6 8 7 4 3 2 1 0 0
0 0 1 2 3 3 2 1 0 0 0 0 2 6 8 8 6 5 7 10 14 16 16 15 14 12 11 9 8 9 9 6 4 4 5 7 7 6 3 2 1 0 0 0
0 0 1 3 3 3 2 1 0 0 0 0 2 5 7 6 4 4 6 9 12 13 13 11 9 8 7 7 6 7 7 5 3 4 6 6 5 3 1 0 0 0 0 0
0 1 2 3 2 1 1 0 0 0 0 1 2 5 6 5 4 4 6 8 10 10 9 8 6 5 5 6 6 5 5 5 5 5 5 4 2 0 0 0 0 0 0 0
1 1 2 2 1 0 0 0 0 0 0 1 3 5 6 5 4 5 6 7 8 9 8 6 5 5 5 5 5 4 3 4 4 4 3 2 0 0 0 0 0 0 0 0
0 1 1 2 1 0 0 0 0 0 1 2 4 5 5 5 5 6 6 7 8 8 7 6 4 4 4 4 4 4 3 2 1 1 1 0 0 0 0 0 0 0 0 0
0 0 0 1 1 1 0 0 0 0 1 3 3 4 4 4 5 5 6 6 6 6 6 5 5 4 3 2 3 4 3 1 0 0 1 1 1 1 1 1 1 1 0 0
0 0 0 0 1 1 1 0 0 1 2 3 3 3 3 3 4 4 4 4 3 4 5 5 5 4 2 1 1 2 2 1 1 1 2 2 2 2 2 2 2 1 0 0
0 0 0 0 0 1 1 1 1 2 2 3 3 3 3 3 3 3 3 2 1 1 3 3 3 2 1 0 0 1 1 1 1 2 3 4 4 4 4 2 1 1 1 1
0 0 0 0 0 0 1 2 2 2 1 2 2 2 3 3 3 2 1 1 0 0 1 1 1 1 1 2 1 1 2 2 3 3 4 5 5 5 4 2 1 1 2 2
0 0 0 0 0 0 1 3 3 1 0 1 1 1 1 2 1 1 0 0 0 0 0 0 1 1 2 2 2 3 4 4 4 4 5 5 4 3 2 1 0 1 1 1
0 0 0 0 0 1 2 3 2 1 0 0 0 0 0 0 0 0 0 0 0 0 0 0 1 2 3 3 3 4 5 5 5 5 4 3 2 1 1 1 1 1 1 1
0 0 0 0 0 1 2 3 1 0 0 0 0 0 0 0 0 0 0 0 0 0 0 0 1 3 3 3 4 6 6 6 5 4 3 2 1 0 0 1 3 2 1 1
Wind_Speed
9 7 8 10 11 12 13 13 12 10 10 5 3 4 3 2 3 3 4 4 5 4 4 5 5 4 4 4 5 4 5 5 6 5 5 4 4 4 3 3 3 2 2 2
9 9 9 11 11 12 13 13 13 11 8 3 3 3 3 3 4 4 4 4 5 5 5 5 5 4 4 4 4 5 4 5 5 5 5 5 4 4 4 3 3 3 2 2
9 8 10 13 10 10 10 9 10 10 5 2 3 3 3 3 3 4 3 4 4 5 5 5 5 5 5 5 5 5 5 4 5 5 5 4 4 4 4 4 3 3 3 2
7 7 12 3 1 5 6 6 7 6 4 3 4 4 2 2 3 3 2 3 3 3 4 4 4 5 5 5 5 5 5 5 5 5 5 4 4 4 3 3 3 3 3 2
7 10 8 4 3 4 6 5 4 4 3 2 3 4 2 1 2 2 2 2 2 2 3 4 4 5 5 5 5 5 5 5 4 4 5 5 4 4 3 3 3 3 3 2
8 10 9 3 2 1 6 7 1 2 3 2 4 5 0 3 3 2 1 1 1 2 2 3 4 4 5 5 5 5 5 4 4 4 4 4 4 4 4 4 4 3 3 2
10 9 4 3 1 4 8 1 2 1 3 4 4 4 4 3 2 2 1 1 2 2 2 3 4 4 5 5 5 4 4 4 4 4 4 4 4 4 4 4 4 4 3 3
8 9 3 3 2 3 3 4 2 2 2 2 2 2 2 2 2 1 1 1 2 2 2 2 3 4 5 4 4 4 4 4 3 4 4 4 5 5 5 5 5 5 4 4
5 2 3 0 1 2 3 2 2 2 3 2 2 2 2 2 2 1 0 1 2 2 3 2 3 3 4 4 4 4 4 4 3 4 3 4 4 5 5 5 4 4 4 4
4 3 1 1 1 2 3 3 3 3 3 2 3 2 2 1 2 1 0 1 2 3 3 3 2 2 3 3 4 5 4 4 3 4 4 4 3 4 4 3 4 3 3 3
6 3 3 2 2 2 2 3 3 2 2 2 2 2 2 1 1 1 1 1 2 2 2 2 2 2 3 3 4 5 5 4 4 4 3 3 3 1 1 1 0 2 2 2
4 3 4 3 3 3 3 3 2 2 2 2 1 1 1 1 1 1 1 2 2 2 2 3 3 3 3 3 4 4 4 4 4 3 3 3 3 3 3 2 4 3 2 2
5 5 5 4 4 3 2 3 2 2 2 2 1 1 1 1 0 0 1 2 2 2 2 3 3 3 3 3 3 4 4 3 3 3 3 3 3 3 3 3 3 3 2 1
4 4 4 3 2 2 2 2 2 2 1 1 1 1 1 1 1 1 1 2 2 2 2 2 2 2 2 3 3 3 3 3 3 3 3 3 3 3 3 3 3 3 4 5
4 4 3 3 2 2 1 1 1 1 1 1 1 1 1 1 1 2 2 2 2 2 2 2 1 1 1 1 2 3 2 3 3 3 3 3 3 3 3 3 2 2 3 5
3 3 2 2 2 2 2 1 1 1 1 1 1 1 1 1 1 2 2 3 3 2 1 1 1 1 1 1 2 2 2 2 3 3 3 3 3 3 3 2 2 2 2 2
4 2 2 2 2 1 1 1 1 1 0 1 1 1 1 2 2 2 2 2 2 2 1 1 1 1 1 2 2 2 2 3 4 3 3 3 3 2 2 2 2 2 1 2
3 3 3 2 2 2 2 2 1 1 0 0 1 1 2 2 2 2 2 2 2 2 1 0 1 1 1 1 2 2 2 2 3 3 2 2 2 2 2 2 2 2 2 3
2 2 2 1 2 2 1 1 1 1 1 0 1 1 2 1 1 1 1 1 1 1 0 1 0 1 1 1 2 2 2 2 2 3 3 3 3 2 2 2 2 2 2 2
2 2 2 1 1 1 1 1 0 0 1 1 2 2 2 2 1 1 0 1 0 1 1 1 1 2 2 2 3 3 3 3 3 3 3 3 3 2 2 2 2 2 2 2
2 2 2 1 1 1 1 0 0 0 1 1 1 2 1 1 1 0 1 0 1 1 1 0 2 2 2 2 3 3 3 3 3 3 3 3 3 3 3 2 2 2 2 2
2 1 1 1 1 1 1 1 1 1 1 1 1 1 1 1 0 0 1 1 1 1 2 1 1 1 3 4 3 3 3 2 2 2 2 3 3 3 3 3 3 2 2 2
1 1 2 1 1 1 2 1 1 1 1 1 1 1 1 1 1 1 1 1 1 2 2 1 1 1 4 4 3 2 2 2 3 3 2 3 3 3 3 3 2 2 2 2
1 1 1 1 2 2 2 2 1 1 1 1 1 1 1 1 1 1 1 1 1 3 2 0 1 3 4 3 2 2 2 3 3 3 2 2 2 2 2 1 1 2 1 2
1 1 1 1 1 1 1 1 1 1 0 1 1 2 1 1 2 2 2 2 1 2 2 1 3 4 3 2 2 2 2 1 2 2 1 1 1 0 0 0 0 1 1 1
1 1 1 1 0 0 0 0 0 0 1 1 1 2 2 2 2 2 1 1 1 2 2 1 1 2 2 1 1 0 0 1 1 1 0 0 0 0 1 0 1 1 1 1
1 1 1 1 1 1 0 0 1 1 1 1 2 2 2 1 1 2 2 2 1 1 1 1 0 1 1 1 1 1 1 1 1 1 1 1 1 1 1 1 1 1 1 1
Wind_Direction
254 256 232 220 221 222 230 244 252 249 253 268 294 291 276 235 196 182 176 173 171 168 161 164 162 158 152 146 144 145 145 144 143 147 148 149 148 147 152 159 168 167 164 170
233 226 228 232 229 227 230 241 249 255 255 291 295 287 266 225 201 199 194 190 183 174 172 173 170 167 157 154 150 152 155 149 146 149 149 152 152 151 153 159 164 156 152 150
230 215 228 226 227 230 229 237 248 250 255 288 293 291 275 242 224 226 214 198 187 184 183 179 177 175 169 161 157 157 153 151 151 151 150 156 162 157 161 164 162 164 169 169
237 218 231 203 161 238 234 237 246 254 261 283 304 300 281 285 278 259 230 207 194 194 190 184 177 173 166 163 161 160 160 160 159 160 157 160 164 162 163 163 170 174 177 177
238 232 232 184 191 228 235 240 248 248 260 294 301 265 197 8 317 295 267 214 197 203 189 174 177 173 168 171 168 168 169 170 169 167 168 171 170 171 173 178 185 190 185 182
240 242 236 188 131 269 247 224 191 252 254 273 277 261 340 21 333 312 306 197 178 193 173 167 173 170 174 179 177 179 174 172 168 173 177 178 175 179 182 189 193 196 175 177
240 241 237 61 93 213 233 199 76 280 274 263 276 315 347 350 347 341 324 182 166 163 163 163 168 172 180 184 185 184 175 170 172 179 184 185 185 187 188 192 189 192 177 177
236 238 217 80 189 238 339 13 352 315 308 284 292 315 322 340 353 347 323 168 163 157 155 157 169 178 182 186 180 175 175 181 184 190 201 186 186 194 199 198 189 189 187 193
252 267 30 20 282 323 321 309 314 317 318 296 277 278 299 333 353 351 308 167 162 162 150 152 175 186 186 182 179 177 179 184 187 191 201 202 199 198 201 202 207 197 193 195
248 230 271 265 269 298 315 312 308 308 307 291 274 276 292 323 338 344 275 186 174 169 160 161 180 186 190 180 179 179 181 187 191 197 197 198 209 206 205 200 205 204 206 206
247 261 266 238 264 282 304 304 302 310 302 288 265 260 271 295 312 310 244 188 178 182 168 168 188 187 183 183 182 184 185 190 198 199 193 199 198 188 223 156 10 269 248 230
263 278 276 282 291 282 266 271 282 285 290 296 283 268 266 275 304 280 194 185 177 175 173 175 183 182 172 177 183 189 192 194 195 194 192 197 180 156 79 84 98 81 28 336
285 287 288 285 290 282 263 274 283 281 275 277 277 261 248 253 237 201 175 168 172 174 174 174 174 166 168 181 185 192 202 198 201 201 201 203 195 188 170 144 141 142 146 136
280 273 274 275 284 290 279 281 278 271 262 240 228 212 208 207 176 162 168 163 168 174 168 169 170 163 171 185 194 199 206 184 200 201 208 206 201 200 193 182 172 169 166 169
281 274 276 287 288 282 270 262 241 218 181 160 190 195 197 194 173 167 170 169 164 164 157 157 162 170 174 182 190 199 212 190 197 200 201 199 195 198 194 188 188 183 161 150
287 281 274 276 283 275 258 252 230 205 194 176 174 178 179 162 141 135 151 164 162 160 161 173 184 177 172 187 197 192 190 177 209 207 196 188 188 193 187 184 192 198 186 155
265 260 260 279 296 306 296 295 288 262 216 165 169 164 162 155 143 125 134 161 164 153 161 189 213 203 195 204 221 210 186 169 190 206 191 186 181 190 192 197 201 203 192 128
260 264 271 281 291 293 300 300 313 344 343 142 188 172 159 153 147 133 135 147 148 142 135 189 242 226 210 217 227 231 209 192 193 192 183 184 191 200 204 207 205 210 205 162
262 260 259 262 259 250 275 315 337 346 359 65 99 104 107 116 121 125 140 152 172 181 57 42 141 227 222 238 244 221 219 206 198 189 185 177 198 211 212 218 225 226 228 227
273 272 248 233 228 214 233 302 342 34 34 66 86 88 86 90 90 95 152 142 49 350 10 355 249 235 231 222 240 223 216 216 212 200 197 200 206 217 224 227 233 238 241 242
272 259 221 196 196 189 204 232 214 140 105 89 90 79 65 70 84 179 241 167 78 4 332 208 247 257 249 237 220 224 216 216 220 217 213 214 216 221 228 228 233 238 241 242
269 237 186 171 177 160 126 114 88 76 73 67 77 74 50 22 15 322 327 328 356 347 281 245 245 275 282 263 225 227 224 223 227 225 219 220 225 230 232 232 232 238 242 246
259 210 180 174 163 135 116 108 85 66 63 42 40 36 5 332 317 305 311 337 322 316 284 290 333 280 269 246 235 231 231 233 240 237 232 229 228 232 237 240 245 249 258 264
209 181 165 149 134 128 117 96 76 52 43 44 44 26 325 312 331 339 341 27 333 296 284 343 228 242 243 230 226 227 228 235 238 237 244 243 233 232 235 242 254 260 261 270
127 128 128 130 131 119 112 130 141 131 79 44 38 38 360 342 340 349 342 344 350 273 265 203 200 220 228 225 222 218 215 227 244 239 213 217 238 258 358 348 293 283 282 280
145 156 124 122 134 281 267 269 275 29 29 39 36 38 30 19 1 348 340 328 308 269 271 266 183 194 210 208 189 157 153 148 165 176 106 113 106 65 55 33 334 316 305 302
194 184 170 180 189 204 235 296 319 346 12 25 19 23 22 11 2 3 355 347 331 305 300 301 251 140 149 137 126 128 120 100 93 86 78 56 27 27 45 33 11 5 340 347